Location: Acheville
(50.3840°N, 2.8827°E)
Time: 01:22:49
(UTC+00:00)

FENGYUN 1C DEB - Pass Details

Date: 11 February 2023
Orbit: 634 x 940 km, 98.3° (Epoch: 28 March)

Event Time Altitude Azimuth Distance (km) Brightness Sun altitude
Rises 17:29:44 0° 171° (S) 3,134 ? -5.6°
Reaches altitude 10° 17:32:05 10° 174° (S) 2,174 ? -5.9°
Maximum altitude 17:36:46 67° 257° (WSW) 732 ? -6.6°
Drops below altitude 10° 17:41:14 10° 341° (NNW) 2,064 ? -7.3°
Sets 17:43:25 0° 344° (NNW) 2,962 ? -7.7°
